Regional Weather Roundup
Issued by NWS

Home | Current Version | Previous Version | Graphics & Text | Print | Product List | Glossary Off
Versions: 1 2 3 4 5 6 7 8 9 10 11 12 13 14 15 16 17 18 19 20 21 22 23 24 25 26 27 28 29 30 31 32 33 34 35 36 37 38 39 40 41 42 43 44 45 46 47 48 49 50

000
ASUS43 KMPX 011110
RWRMN
WEATHER ROUNDUP FOR MINNESOTA
NATIONAL WEATHER SERVICE TWIN CITIES/CHANHASSEN MN
600 AM CDT MON SEP 01 2014


NOTE: "FAIR" INDICATES FEW OR NO CLOUDS BELOW 12,000 FEET WITH NO
SIGNIFICANT WEATHER AND/OR OBSTRUCTIONS TO VISIBILITY. N/A MEANS
CURRENT SKY AND/OR WEATHER CONDITIONS ARE NOT AVAILABLE.

MNZ060>063-068>070-011200-
   Twin Cities Metro

CITY           SKY/WX    TMP DP  RH WIND       PRES   REMARKS
TWIN CITIES    CLOUDY    65  64  97 SW7       29.65R
ST PAUL        CLOUDY    65  63  93 W9        29.64F
CRYSTAL        MOCLDY    67  63  87 SW5       29.63R
BLAINE         CLOUDY    66  66 100 SW3       29.64S
LAKEVILLE      CLOUDY    63  63 100 W7        29.64F
EDEN PRAIRIE   CLOUDY    65  64  97 W5        29.64S
SOUTH ST PAUL  LGT RAIN  66  64  92 W7        29.64F
LAKE ELMO      LGT RAIN  64  64 100 SW8       29.65S
$$
MNZ001>005-007-008-013>017-022>024-027-028-011200-
   Northwest Minnesota

CITY           SKY/WX    TMP DP  RH WIND       PRES   REMARKS
BEMIDJI        CLOUDY    57  56  96 W7        29.65S
HALLOCK        PTCLDY    54  52  94 CALM      29.66S FOG
ROSEAU         MOCLDY    59  54  82 W7        29.64R
WARROAD        CLOUDY    57  54  88 W5        29.63S
THIEF RVR FALL CLOUDY    57  55  94 NW10      29.67S
CROOKSTON      MOCLDY    54  52  94 CALM      29.68S FOG
FOSSTON        CLOUDY    55  55 100 NW7       29.67S
DETROIT LAKES  CLOUDY    57  55  94 NW5       29.69S
MOORHEAD       MOCLDY    54  54 100 NW3       29.70R
PARK RAPIDS    MOCLDY    55  55 100 W6        29.66S
MAHNOMEN       CLOUDY    56  56 100 NW5       29.67F FOG
$$
MNZ006-009>011-018-025>026-011200-
   North Central Minnesota

CITY           SKY/WX    TMP DP  RH WIND       PRES   REMARKS
BAUDETTE       CLOUDY    59  56  89 NW6       29.60S
FLAG ISLAND    CLOUDY    61  57  88 NW14      29.59S
INTL FALLS     CLOUDY    59  57  94 W8        29.58R
WASKISH        CLOUDY    61  57  88 W9        29.63S
BIG FORK       CLOUDY    59  57  94 CALM      29.61F
LONGVILLE      MOCLDY    57  57 100 W3        29.64R
GRAND RAPIDS   CLOUDY    61  57  88 NW7       29.62S
CRANE LAKE     CLOUDY    59  57  94 W3        29.58S
ORR            CLOUDY    57  54  88 W3        29.56F
COOK           CLOUDY    57  55  94 W6        29.60S
WALKER         FAIR      56  55  99 W3        29.65S
$$
MNZ012-019>021-037-011200-
   Northeast Minnesota

CITY           SKY/WX    TMP DP  RH WIND       PRES   REMARKS
DULUTH         LGT RAIN  64  62  93 NW6       29.59S
ELY            LGT RAIN  61  57  88 W6        29.56F
HIBBING        CLOUDY    60  57  89 NW8       29.60F
EVELETH        CLOUDY    59  59 100 W7        29.60S
DULUTH HARBOR  RAIN      64  63  94 SW6       29.58S
TWO HARBORS    RAIN      63  57  82 NW3       29.55S
SILVER BAY     DRIZZLE   61  61 100 CALM      29.55R
GRAND MARAIS     N/A     63  62  97 CALM      29.51R
G MARAIS ARPRT LGT RAIN  61  57  88 CALM      29.55S
$$
MNZ029>031-032-039>041-046>048-054>057-064-011200-
   West Central Minnesota

CITY           SKY/WX    TMP DP  RH WIND       PRES   REMARKS
FERGUS FALLS   MOCLDY    54  54 100 NW6       29.69S
WHEATON        MOCLDY    57  55  94 W5        29.71S
MORRIS         CLOUDY    61  61 100 NW8       29.68S
ALEXANDRIA     CLOUDY    62  61  96 W7        29.69S
ELBOW LAKE     FAIR      56  56  99 NW6       29.69S
WADENA         MOCLDY    57  55  94 W3        29.67S
GLENWOOD       CLOUDY    63  63 100 W6        29.68S
APPLETON       CLOUDY    63  61  94 W3        29.68S
BENSON         CLOUDY    63  61  94 N3        29.68S
ORTONVILLE     CLOUDY    64  57  77 NW9       29.69S
MADISON        CLOUDY    64  63  94 W5        29.69S
WILLMAR        FAIR      64  61  88 W5        29.69S
$$
MNZ033>034-036-042>043-049>051-058-059-011200-
   Central Minnesota

CITY           SKY/WX    TMP DP  RH WIND       PRES   REMARKS
ST CLOUD       CLOUDY    67  64  90 NW6       29.65R
SAUK CENTRE    PTSUNNY   63  61  94 W5        29.67S
PAYNESVILLE    LGT RAIN  60  59  97 CALM      29.67S
AITKIN         CLOUDY    64  57  77 CALM      29.62S
PINE RIVER     MOCLDY    59  59 100 W6        29.69R
BRAINERD       MOCLDY    61  59  93 W5        29.65R
STAPLES        MOCLDY    57  57 100 NW6       29.67R
LONG PRAIRIE     N/A     63  59  88 W7        29.67S
LITTLE FALLS   CLOUDY    63  59  88 NW5       29.65S
LITCHFIELD     CLOUDY    66  66 100 W6        29.67S
BUFFALO        LGT RAIN  64  61  90 CALM      29.66R
MAPLE LAKE     CLOUDY    65  64  97 W6        29.66R
$$
MNZ037-044-045-052-053-011200-
   East Central Minnesota

CITY           SKY/WX    TMP DP  RH WIND       PRES   REMARKS
PRINCETON      CLOUDY    64  63  94 N2        29.65R
MORA           RAIN      59  57  94 S3        29.65S
CAMBRIDGE      HVY RAIN  66  57  72 NW5       29.63R
RUSH CITY      LGT RAIN  64  62  95 CALM      29.63F
MOOSE LAKE     LGT RAIN  63  61  94 CALM      29.60R
HINCKLEY       RAIN      63  63 100 SW3       29.62F
CLOQUET        RAIN      63  61  94 CALM      29.60R
MCGREGOR       CLOUDY    63  61  94 W3        29.63R
$$
MNZ071>073-080-081-089-090-097-098-011200-
   Southwest Minnesota

CITY           SKY/WX    TMP DP  RH WIND       PRES   REMARKS
MONTEVIDEO     CLOUDY    63  61  94 CALM      29.69S
GRANITE FALLS  CLOUDY    61  61  99 W5        29.70S
CANBY          CLOUDY    62  60  95 W6        29.71S
MARSHALL       MOCLDY    63  59  88 NW6       29.69S
REDWOOD FALLS  CLOUDY    64  63  96 NW8       29.66S
OLIVIA         CLOUDY    63  61  94 W5        29.67F
PIPESTONE      DRIZZLE   63  61  94 N7        29.70F
WINDOM         MOCLDY    63  61  94 CALM      29.70R
WORTHINGTON    MOCLDY    63  61  94 NW6       29.72S
JACKSON        MOCLDY    63  61  94 W3        29.72R
TRACY          MOCLDY    63  62  96 CALM      29.70S
SLAYTON        MOCLDY    61  60  98 CALM      29.71F
$$
MNZ065>067-074>077-082>085-091>093-011200-
   South Central Minnesota

CITY           SKY/WX    TMP DP  RH WIND       PRES   REMARKS
MANKATO        CLOUDY    64  61  88 SW6       29.66F
NEW ULM        CLOUDY    63  63 100 CALM      29.66F
ST JAMES       MOCLDY    64  63  94 W5        29.68S
FAIRMONT       CLOUDY    64  61  88 NW7       29.68R
GLENCOE        LGT RAIN  65  62  89 W8        29.66S
FARIBAULT      CLOUDY    66  63  88 W8        29.65F HAZE
OWATONNA       CLOUDY    66  63  88 SW8       29.66R
WASECA         CLOUDY    63  59  88 W8        29.67F FOG
ALBERT LEA     RAIN      64  64 100 SW3       29.66S
$$
MNZ078>079-086>088-094>096-011200-
   Southeast Minnesota

CITY           SKY/WX    TMP DP  RH WIND       PRES   REMARKS
ROCHESTER      TSTM      64  61  90 S14G28    29.66F FOG
RED WING       CLOUDY    66  64  94 W3        29.63S THUNDER
STANTON        CLOUDY    66  63  88 W8        29.63F FOG
DODGE CENTER   CLOUDY    64  63  94 SW8       29.66S
WINONA         CLOUDY    66  63  88 SW7       29.66R
AUSTIN         RAIN      64  63  94 S21       29.65S
PRESTON        LGT RAIN  63  63 100 SW8       29.68F
$$
ABBREVIATIONS USED IN REMARKS
   TC - TEMPERATURES IN CELSIUS
  WCI - WIND CHILL INDEX
   HX - HEAT INDEX
  VSB - VISIBILITY
$$



USA.gov is the U.S. government's official web portal to all federal, state and local government web resources and services.